KBKLKCAK

Guest
Details From KBKL - Burke Lakefront
To KCAK - Akron Canton Rgnl
Flight Number -
Tags Generated
Created
Modified
Stats Distance 38 nm / 70 km
Max Altitude 0 ft / 0 m
Waypoints 2
Social Downloads 1
Likes 0
Share VATSIM

Download

Looking for another format? Having issues loading an existing format? Contact us
Advertisement - Login to hide

Notes

Generated

Route

KBKL KCAK

ID Type Via Altitude Latitude Longitude Leg Dist Tot Dist Heading (true) Name
O KBKL APT - 0 ft / 0 m 41.51269˚ -81.69169˚ - 0 nm - -
O KCAK APT - 0 ft / 0 m 40.90750˚ -81.45374˚ 37 nm 37 nm 163° / 164° -

Altitude Profile

Advertisement - Login to hide

KBKL

Details ICAO KBKL (BKL)
Name Burke Lakefront
Region United States
Timezone America/New_York (UTC-4.0)
Stats Elevation 583 ft / 178 m (AMSL)
Location 41.517422° -81.683358°
Runways 2
Magnetic Variation 8.378° W

METAR

KBKL 272253Z 05006KT 10SM CLR 26/19 A2991 RMK AO2 SLP124 T02560194

Decode

TAF

Not found

Departure Runways

ID Width Length Bearing (true) Bearing (mag) Surface Threshold Offset Overrun Length
06L 150 ft / 46 m 6,190 ft / 1,887 m 57.81° 66.19° Asphalt 265 ft / 81 m 0 ft / 0 m
06R 100 ft / 30 m 5,190 ft / 1,582 m 57.82° 66.20° Asphalt 267 ft / 81 m 0 ft / 0 m
24L 100 ft / 30 m 5,190 ft / 1,582 m 237.83° 246.21° Asphalt 0 ft / 0 m 0 ft / 0 m
24R 150 ft / 46 m 6,190 ft / 1,887 m 237.82° 246.20° Asphalt 0 ft / 0 m 0 ft / 0 m

KCAK

Details ICAO KCAK (CAK)
Name AKRON CANTON RGNL
Region United States
Timezone America/New_York (UTC-4.0)
Stats Elevation 1,228 ft / 374 m (AMSL)
Location 40.916069° -81.442189°
Runways 2
Magnetic Variation 8.422° W

METAR

KCAK 272251Z 00000KT 10SM FEW040 FEW250 29/18 A2995 RMK AO2 SLP131 T02940183 $

Decode

TAF

TAF KCAK 271758Z 2718/2818 VRB03KT P6SM SCT025 TEMPO 2718/2719 BKN025 FM280600 00000KT 4SM BR SKC FM280900 00000KT 2SM BR SKC FM281400 VRB03KT P6SM SKC

Decode

Destination Runways

ID Width Length Bearing (true) Bearing (mag) Surface Threshold Offset Overrun Length
01 151 ft / 46 m 7,612 ft / 2,320 m 2.46° 10.88° Asphalt 0 ft / 0 m 0 ft / 0 m
05 151 ft / 46 m 7,592 ft / 2,314 m 47.35° 55.77° Asphalt 0 ft / 0 m 0 ft / 0 m
19 151 ft / 46 m 7,612 ft / 2,320 m 182.46° 190.88° Asphalt 600 ft / 183 m 0 ft / 0 m
23 151 ft / 46 m 7,592 ft / 2,314 m 227.36° 235.78° Asphalt 0 ft / 0 m 0 ft / 0 m

Approach Navaids

Runway Type Ident Frequency Range Bearing (true) Bearing (mag) Slope Elevation
01 Localiser ICAK 109.50 MHz 18 nm / 33 km 2.46° 10.88° - 1,204 ft / 367 m (AMSL)
01 Glidescope ICAK 109.50 MHz 10 nm / 19 km 2.46° 10.88° 3.00° 1,199 ft / 365 m (AMSL)
19 Localiser IRGO 109.50 MHz 18 nm / 33 km 182.46° 190.88° - 1,215 ft / 370 m (AMSL)
19 Glidescope IRGO 109.50 MHz 10 nm / 19 km 182.46° 190.88° 3.00° 1,210 ft / 369 m (AMSL)
23 Localiser IGGZ 108.30 MHz 18 nm / 33 km 227.36° 235.78° - 1,183 ft / 361 m (AMSL)
23 Glidescope IGGZ 108.30 MHz 10 nm / 19 km 227.36° 235.78° 3.00° 1,223 ft / 373 m (AMSL)

Popular Alternatives